Погода в Кривце

Россия / Пермский край     58°34′28″N   55°23′05″E
темп.,
°C
ветер,
м/с
пор.,
м/с
влажн.,
%
обл.,
%
осадки,
мм/ч
давл.,
гПа
погр.,
м
17 апреля, сб
сб1723:00+1св22774 0.0 103021
02:00−1св11803 0.0 102911
05:00−1ссз118126 0.0 103011
08:00+2сз13705 0.0 1029142
11:00+7сз34565 0.0 1028996
14:00+9сз35495 0.0 10271521
17:00+9сз46475 0.0 10251743
20:00+6зсз25697 0.0 102493
18 апреля, вс
вс1823:00+3зсз29815 0.0 1024178
02:00+3зсз311821 0.0 1022341
05:00+2сз312895 0.0 1023406
08:000ссв41073100 0.1 1025804
11:00+2ссв57484 0.1 10281262
14:00+4св574238 0.0 10291802
17:00+4св564038 0.0 10301753
20:00+2св49484 0.0 1032517
19 апреля, пн
пн1923:00−1св39605 0.0 1034264
02:00−2всв25675 0.0 1035124
05:00−2вюв11625 0.0 103624
08:000вюв12465 0.0 1037310
11:00+3всв12331 0.0 10371479
14:00+4всв22321 0.0 10371629
17:00+4всв33340 0.0 10361370
20:00+2вюв22490 0.0 103650
20 апреля, вт
вт2023:000всв11510 0.0 103710
02:00−1св00520 0.0 103710
05:00−1сз00545 0.0 103710
08:00+1зсз12475 0.0 1037170
11:00+5сз22335 0.0 1036973
14:00+8сз22300 0.0 10351249
17:00+9сз22303 0.0 10341274
20:00+6сз11450 0.0 103310
21 апреля, ср
ср2123:00+3юз00520 0.0 103410
02:00+2ююз11560 0.0 103310
05:00+1юз11600 0.0 103410
08:00+4ю11520 0.0 103480
11:00+9ю23370 0.0 1033777
14:00+11ю34325 0.0 10311144
17:00+13ю35295 0.0 10301349
20:00+9ю234697 0.0 103048